Regional Weather Roundup
Issued by NWS

Home | Current Version | Previous Version | Text Only | Print | Product List | Glossary Off
Versions: 1 2 3 4 5 6 7 8 9 10 11 12 13 14 15 16 17 18 19 20 21 22 23 24 25 26 27 28 29 30 31 32 33 34 35 36 37 38 39 40 41 42 43 44 45 46 47 48 49 50

970
ASUS45 KSLC 300510
RWRUT

UTAH REGIONAL WEATHER ROUNDUP
NATIONAL WEATHER SERVICE SALT LAKE CITY UT
1100 PM MDT FRI JUL 29 2016

UTZ001>011-023>025-300600-

NORTHERN UTAH

CITY           SKY/WX    TMP DP  RH WIND       PRES   REMARKS
BRIGHAM CITY     N/A     79  46  30 E3        29.96S
HILL AFB       CLEAR     80  40  23 E12       30.00S
LOGAN          CLEAR     74  46  36 S3        29.97S
OGDEN          CLEAR     79  44  28 S9        29.96S
PROVO AIRPORT  PTCLDY    72  54  53 E5        29.99R
SALT LAKE CITY PTCLDY    85  40  20 SE7       29.94S
VERNAL         CLEAR     80  34  19 NW7       30.01S
WENDOVER       PTCLDY    84  41  21 W6        29.95S
HEBER CITY     CLEAR     64  43  45 SW7       30.07S

$$

UTZ012>022-026-027-300600-

SOUTHERN/CENTRAL UTAH

CITY           SKY/WX    TMP DP  RH WIND       PRES   REMARKS
BLANDING       MOCLDY    80  31  16 NE5       30.14R
BRYCE CANYON   MOCLDY    70  40  33 W13       30.29S
CEDAR CITY     CLOUDY    79  44  28 SE17      30.10F
DELTA          PTCLDY    81  37  21 SW8       30.02R
MILFORD        CLOUDY    80  45  28 S6        30.04S
MOAB/CYNLANDS  PTCLDY    85  31  14 NW5       29.94S
PRICE          PTCLDY    78  34  20 CALM      30.09R
ST GEORGE      CLEAR     91  48  22 E5        29.91F

$$

REGIONAL REPORTS     COLORADO/ARIZONA

CITY           SKY/WX    TMP DP  RH WIND       PRES   REMARKS
CRAIG, CO      CLEAR     63  39  41 CALM      30.10R
GRAND JUNCTION CLEAR     77  35  21 E5        29.97S
RIFLE          CLEAR     74  37  26 SE10      30.05R
MONTROSE       CLOUDY    73  41  31 E9        30.09S
CORTEZ         CLEAR     67  41  38 CALM      30.08R
PAGE, AZ       MOCLDY    91  41  17 W6        29.96R
GRAND CANYON   CLOUDY    67  52  58 CALM      30.24S
KINGMAN        CLOUDY    95  53  24 SW10      29.91S HX  92
FLAGSTAFF      CLOUDY    66  47  50 SW8       30.26S

$$

REGIONAL REPORTS    NEVADA/IDAHO/WYOMING

CITY           SKY/WX    TMP DP  RH WIND       PRES   REMARKS
LAS VEGAS, NV  MOCLDY   103  42  12 N24       29.77R HX  98
ELY            MOCLDY    70  47  43 SW14      30.18R
ELKO           MOCLDY    86  36  16 S12G18    30.00S
POCATELLO, ID  CLEAR     83  36  18 S12       29.95R
BURLEY         CLEAR     67  51  56 SW8       29.92R
EVANSTON, WY   CLEAR     72  30  21 W10       30.21S
ROCK SPRINGS   CLEAR     71  36  27 NE9       30.17R
KEMMERER         N/A    N/A N/A N/A N9        30.22S

$$




USA.gov is the U.S. government's official web portal to all federal, state and local government web resources and services.